When you browse on this site, cookies collect data to enhance your experience and personalize the content and advertising you see.
Visit our Privacy Policy to learn more. By continuing to use the site, you agree to this use of cookies and data.
  • In Switzerland
  • List of Countries
  • For 7 days
  • Water Temperature
  • Satellite Maps
  • Weather Map
  • Weather Widgets
  • user-avatar
    Login

    Hourly Weather Caracas

    Today, 23 July, Tuesday

    Time Temperature Precipitation Wind Pressure Humidity
    00:00 +17°C° 0.1 mm 2 mps 650 mmHg 93%
    01:00 +17°C° 0.1 mm 2 mps 650 mmHg 93%
    02:00 +17°C° 0.1 mm 2 mps 649 mmHg 93%
    03:00 +17°C° 0 mm 2 mps 649 mmHg 94%
    04:00 +17°C° 0 mm 2 mps 649 mmHg 94%
    05:00 +17°C° 0 mm 2 mps 649 mmHg 94%
    06:00 +17°C° 0 mm 2 mps 649 mmHg 93%
    07:00 +18°C° 0 mm 2 mps 650 mmHg 91%
    08:00 +19°C° 0 mm 2 mps 651 mmHg 90%
    09:00 +21°C° 0 mm 2 mps 651 mmHg 81%
    10:00 +23°C° 0 mm 2 mps 652 mmHg 72%
    11:00 +25°C° 0 mm 3 mps 652 mmHg 62%
    12:00 +25°C° 0.2 mm 3 mps 652 mmHg 64%
    13:00 +25°C° 0.2 mm 3 mps 651 mmHg 65%
    14:00 +25°C° 0.2 mm 3 mps 651 mmHg 67%
    15:00 +25°C° 0.3 mm 3 mps 650 mmHg 71%
    16:00 +24°C° 0.3 mm 3 mps 650 mmHg 75%
    17:00 +22°C° 0.3 mm 3 mps 649 mmHg 79%
    18:00 +21°C° 0.1 mm 3 mps 649 mmHg 83%
    19:00 +20°C° 0.1 mm 2 mps 649 mmHg 88%
    20:00 +18°C° 0.1 mm 2 mps 649 mmHg 93%
    21:00 +18°C° 0 mm 2 mps 650 mmHg 93%
    22:00 +18°C° 0 mm 2 mps 650 mmHg 93%
    23:00 +18°C° 0 mm 3 mps 650 mmHg 93%

    Tomorrow, 24 July, Wednesday

    Time Temperature Precipitation Wind Pressure Humidity
    00:00 +17°C° 0 mm 2 mps 650 mmHg 93%
    01:00 +17°C° 0 mm 2 mps 650 mmHg 93%
    02:00 +17°C° 0 mm 2 mps 649 mmHg 94%
    03:00 +17°C° 0 mm 2 mps 649 mmHg 94%
    04:00 +17°C° 0 mm 2 mps 649 mmHg 94%
    05:00 +17°C° 0 mm 2 mps 649 mmHg 94%
    06:00 +18°C° 0 mm 2 mps 650 mmHg 92%
    07:00 +18°C° 0 mm 2 mps 650 mmHg 90%
    08:00 +19°C° 0 mm 2 mps 651 mmHg 88%
    09:00 +21°C° 0 mm 2 mps 651 mmHg 80%
    10:00 +22°C° 0 mm 3 mps 652 mmHg 71%
    11:00 +25°C° 0 mm 3 mps 652 mmHg 63%
    12:00 +25°C° 0.3 mm 3 mps 652 mmHg 64%
    13:00 +25°C° 0.3 mm 3 mps 651 mmHg 65%
    14:00 +25°C° 0.3 mm 3 mps 651 mmHg 67%
    15:00 +24°C° 0.3 mm 3 mps 650 mmHg 70%
    16:00 +24°C° 0.3 mm 3 mps 650 mmHg 73%
    17:00 +23°C° 0.3 mm 2 mps 649 mmHg 76%
    18:00 +21°C° 0.1 mm 2 mps 649 mmHg 81%
    19:00 +19°C° 0.1 mm 2 mps 649 mmHg 87%
    20:00 +18°C° 0.1 mm 2 mps 649 mmHg 92%
    21:00 +17°C° 0 mm 2 mps 649 mmHg 92%
    22:00 +17°C° 0 mm 2 mps 650 mmHg 93%
    23:00 +17°C° 0 mm 2 mps 650 mmHg 93%

    Day after tomorrow, 25 July, Thursday

    Time Temperature Precipitation Wind Pressure Humidity
    00:00 +17°C° 0 mm 2 mps 650 mmHg 94%
    01:00 +16°C° 0 mm 2 mps 649 mmHg 94%
    02:00 +16°C° 0 mm 2 mps 648 mmHg 94%
    03:00 +16°C° 0 mm 2 mps 648 mmHg 94%
    04:00 +16°C° 0 mm 2 mps 648 mmHg 94%
    05:00 +16°C° 0 mm 2 mps 648 mmHg 94%
    06:00 +16°C° 0 mm 2 mps 649 mmHg 91%
    07:00 +17°C° 0 mm 2 mps 649 mmHg 88%
    08:00 +18°C° 0 mm 2 mps 650 mmHg 85%
    09:00 +20°C° 0 mm 2 mps 651 mmHg 75%
    10:00 +23°C° 0 mm 2 mps 651 mmHg 65%
    11:00 +25°C° 0 mm 3 mps 652 mmHg 55%
    12:00 +25°C° 0 mm 3 mps 651 mmHg 54%
    13:00 +25°C° 0 mm 3 mps 651 mmHg 53%
    14:00 +26°C° 0 mm 3 mps 650 mmHg 52%
    15:00 +25°C° 0.1 mm 2 mps 650 mmHg 56%
    16:00 +25°C° 0.1 mm 2 mps 650 mmHg 61%
    17:00 +24°C° 0.1 mm 2 mps 649 mmHg 66%
    18:00 +21°C° 0 mm 2 mps 649 mmHg 74%
    19:00 +20°C° 0 mm 2 mps 649 mmHg 83%
    20:00 +18°C° 0 mm 3 mps 649 mmHg 92%
    21:00 +18°C° 0 mm 2 mps 649 mmHg 92%
    22:00 +17°C° 0 mm 2 mps 650 mmHg 93%
    23:00 +17°C° 0 mm 2 mps 650 mmHg 94%

    26 July, Friday

    Time Temperature Precipitation Wind Pressure Humidity
    00:00 +17°C° 0 mm 2 mps 649 mmHg 94%
    01:00 +17°C° 0 mm 2 mps 649 mmHg 93%
    02:00 +17°C° 0 mm 2 mps 649 mmHg 93%
    03:00 +17°C° 0 mm 2 mps 649 mmHg 93%
    04:00 +17°C° 0 mm 2 mps 649 mmHg 94%
    05:00 +17°C° 0 mm 2 mps 649 mmHg 94%
    06:00 +18°C° 0 mm 2 mps 649 mmHg 91%
    07:00 +18°C° 0 mm 2 mps 650 mmHg 88%
    08:00 +20°C° 0 mm 1 mps 651 mmHg 86%
    09:00 +21°C° 0.1 mm 2 mps 651 mmHg 79%
    10:00 +24°C° 0.1 mm 2 mps 652 mmHg 73%
    11:00 +25°C° 0.1 mm 2 mps 652 mmHg 67%
    12:00 +25°C° 1.2 mm 3 mps 652 mmHg 71%
    13:00 +24°C° 1.2 mm 3 mps 651 mmHg 75%
    14:00 +24°C° 1.2 mm 3 mps 650 mmHg 79%
    15:00 +22°C° 0.8 mm 3 mps 650 mmHg 81%
    16:00 +22°C° 0.8 mm 3 mps 650 mmHg 83%
    17:00 +21°C° 0.8 mm 3 mps 649 mmHg 86%
    18:00 +20°C° 0.1 mm 3 mps 650 mmHg 89%
    19:00 +19°C° 0.1 mm 2 mps 650 mmHg 91%
    20:00 +18°C° 0.1 mm 2 mps 650 mmHg 94%
    21:00 +18°C° 0.1 mm 2 mps 650 mmHg 94%
    22:00 +17°C° 0.1 mm 2 mps 650 mmHg 95%
    23:00 +17°C° 0.1 mm 2 mps 651 mmHg 95%

    27 July, Saturday

    Time Temperature Precipitation Wind Pressure Humidity
    00:00 +17°C° 0 mm 2 mps 650 mmHg 95%
    01:00 +17°C° 0 mm 2 mps 650 mmHg 95%
    02:00 +17°C° 0 mm 2 mps 649 mmHg 96%
    03:00 +17°C° 0 mm 2 mps 649 mmHg 95%
    04:00 +17°C° 0 mm 2 mps 649 mmHg 95%
    05:00 +17°C° 0 mm 2 mps 649 mmHg 95%
    06:00 +17°C° 0 mm 2 mps 650 mmHg 93%
    07:00 +18°C° 0 mm 2 mps 650 mmHg 92%
    08:00 +18°C° 0 mm 2 mps 651 mmHg 90%
    09:00 +20°C° 0 mm 2 mps 651 mmHg 81%
    10:00 +22°C° 0 mm 3 mps 652 mmHg 72%
    11:00 +24°C° 0 mm 3 mps 652 mmHg 62%
    12:00 +24°C° 0.2 mm 3 mps 652 mmHg 63%
    13:00 +25°C° 0.2 mm 3 mps 652 mmHg 65%
    14:00 +25°C° 0.2 mm 4 mps 651 mmHg 66%
    15:00 +24°C° 0.4 mm 3 mps 651 mmHg 70%
    16:00 +24°C° 0.4 mm 3 mps 650 mmHg 73%
    17:00 +22°C° 0.4 mm 3 mps 650 mmHg 77%
    18:00 +21°C° 0.5 mm 3 mps 650 mmHg 82%
    19:00 +19°C° 0.5 mm 3 mps 650 mmHg 87%
    20:00 +18°C° 0.5 mm 2 mps 650 mmHg 92%
    21:00 +18°C° 0.1 mm 2 mps 650 mmHg 92%
    22:00 +18°C° 0.1 mm 2 mps 651 mmHg 92%
    23:00 +17°C° 0.1 mm 2 mps 651 mmHg 92%

    28 July, Sunday

    Time Temperature Precipitation Wind Pressure Humidity
    00:00 +17°C° 0.1 mm 2 mps 650 mmHg 92%
    01:00 +17°C° 0.1 mm 2 mps 650 mmHg 92%
    02:00 +17°C° 0.1 mm 2 mps 650 mmHg 92%
    03:00 +18°C° 0 mm 1 mps 650 mmHg 93%
    04:00 +18°C° 0 mm 1 mps 649 mmHg 93%
    05:00 +16°C° 0 mm 1 mps 649 mmHg 93%
    06:00 +18°C° 0.1 mm 1 mps 650 mmHg 91%
    07:00 +19°C° 0.1 mm 1 mps 650 mmHg 89%
    08:00 +20°C° 0.1 mm 1 mps 651 mmHg 88%
    09:00 +21°C° 0.5 mm 1 mps 651 mmHg 86%
    10:00 +22°C° 0.5 mm 1 mps 652 mmHg 84%
    11:00 +23°C° 0.5 mm 1 mps 652 mmHg 82%
    12:00 +22°C° 1.2 mm 1 mps 652 mmHg 85%
    13:00 +21°C° 1.2 mm 1 mps 651 mmHg 88%
    14:00 +21°C° 1.2 mm 1 mps 650 mmHg 91%
    15:00 +20°C° 0.9 mm 1 mps 650 mmHg 91%
    16:00 +20°C° 0.9 mm 1 mps 650 mmHg 91%
    17:00 +20°C° 0.9 mm 1 mps 649 mmHg 92%
    18:00 +17°C° 0 mm 0 mps 649 mmHg 91%
    19:00 +17°C° 0 mm 0 mps 649 mmHg 90%
    20:00 +16°C° 0 mm 0 mps 649 mmHg 90%
    21:00 +16°C° 0 mm 0 mps 649 mmHg 88%
    22:00 +16°C° 0 mm 0 mps 649 mmHg 87%
    23:00 +16°C° 0 mm 0 mps 649 mmHg 86%
    Show more